Flag for Switzerland Weather past 2 weeks in Aarau, Aargau, Switzerland

Now
31 °F

Chilly.


Feels Like: 31 °F
Forecast: 23 / 35 °F
Wind: No wind

Location: Wynau

Current Time: Jan 25, 2015 at 9:51:53 PM

Latest Report: Jan 25, 2015 at 9:00 PM


Visibility: N/A

Pressure: 30.47 "Hg

Humidity: 93%

Dew point: 29 °F

Location of AarauLocation

Historic Weather in Aarau — Graph

°F

Aarau temperature yesterday

Maximum temperature yesterday: 37 °F (at 2:00 PM)
Minimum temperature yesterday: 31 °F (at 11:00 PM)
Average temperature yesterday: 34 °F

Past Weeks' High & Low Weather Summary

 TemperatureHumidityPressure
High56 °F (Jan 10, 8:00 PM)100% (Jan 15, 1:00 AM)30.55 "Hg (Jan 15, 1:00 AM)
Low24 °F (Jan 13, 9:00 AM)48% (Jan 13, 4:00 PM)29.72 "Hg (Jan 16, 4:00 PM)
Average35 °F87%30.09 "Hg
* Reported Jan 10 8:00 PM — Jan 25 8:00 PM, Aarau, Weather by CustomWeather, © 2014

Note: Actual official high and low records may vary slightly from our data, if they occured in-between our weather recording intervals... More about our weather records

Advertising

Aarau weather history for previous 24 hours

 ConditionsComfort  
Time TempWeatherWind HumidityBarometerVisibility
8:00 PM
Jan 25
31 °FChilly.No wind92%30.47 "HgN/A
7:00 PM32 °FChilly.1 mph91%30.47 "HgN/A
6:00 PM33 °FChilly.1 mph85%30.46 "HgN/A
5:00 PM34 °FChilly.3 mph75%30.44 "HgN/A
4:00 PM35 °FChilly.6 mph71%30.44 "HgN/A
3:00 PM35 °FChilly.5 mph66%30.43 "HgN/A
2:00 PM35 °FChilly.5 mph75%30.44 "HgN/A
1:00 PM35 °FChilly.1 mph74%30.47 "HgN/A
12:00 PM34 °FChilly.1 mph81%30.47 "HgN/A
11:00 AM33 °FChilly.1 mph82%30.47 "HgN/A
10:00 AM33 °FChilly.1 mph81%30.46 "HgN/A
9:00 AM31 °FChilly.2 mph83%30.46 "HgN/A
8:00 AM32 °FChilly.2 mph78%30.43 "HgN/A
7:00 AM34 °FChilly.5 mph74%30.40 "HgN/A
6:00 AM34 °FChilly.7 mph74%30.38 "HgN/A
5:00 AM32 °FChilly.1 mph95%30.37 "HgN/A
3:00 AM31 °FChilly.2 mph96%30.36 "HgN/A
2:00 AM31 °FChilly.2 mph94%30.35 "HgN/A
1:00 AM32 °FChilly.1 mph92%30.34 "HgN/A
12:00 AM31 °FChilly.2 mph92%30.33 "HgN/A
11:00 PM
Jan 24
31 °FChilly.1 mph95%30.32 "HgN/A
9:00 PM32 °FChilly.1 mph80%30.29 "HgN/A
Weather by CustomWeather, © 2014

See weather overviewHow to use our weather pages